Hourly Data Report for October 24, 2015

All times are specified in Local Standard Time (LST). Add 1 hour to adjust for Daylight Saving Time where and when it is observed.

WINNIPEG A CS
MANITOBA

49°55'00.000" N
97°14'58.000" W
238.70 m
502S001
71849
XWG

Download Data

Hourly Data (October 2015)
Hourly Data Report for October 24, 2015
Temp Definition
°C
Dew Point Temp Definition
°C
Rel Hum Definition
%
Wind Dir Definition
10's deg

Wind Spd Definition
km/h
Visibility Definition
km
Stn Press Definition
kPa
Hmdx Definition


Wind Chill Definition


Weather Definition


TIME
00:00 2.8 2.4 97 29 15   98.26     LegendNANA
01:00 1.0 0.7 98 30 13   98.28     LegendNANA
02:00 1.0 0.7 98 28 13   98.33     LegendNANA
03:00 0.8 0.5 97 27 13   98.37     LegendNANA
04:00 0.9 0.4 97 28 13   98.36     LegendNANA
05:00 0.4 0.0 97 27 14   98.40     LegendNANA
06:00 0.4 -0.2 96 27 14   98.44     LegendNANA
07:00 0.2 -0.7 94 27 16   98.47     LegendNANA
08:00 1.4 0.1 91 26 15   98.51     LegendNANA
09:00 3.4 1.6 88 26 15   98.57     LegendNANA
10:00 5.9 3.5 85 28 17   98.58     LegendNANA
11:00 8.0 4.9 81 27 20   98.62     LegendNANA
12:00 9.4 4.7 72 30 24   98.64     LegendNANA
13:00 10.5 4.9 68 31 25   98.67     LegendNANA
14:00 11.0 5.3 68 31 23   98.67     LegendNANA
15:00 10.1 5.1 71 31 24   98.74     LegendNANA
16:00 8.9 4.5 74 32 24   98.82     LegendNANA
17:00 8.0 4.4 78 34 21   98.92     LegendNANA
18:00 6.4 3.8 84 36 15   99.00     LegendNANA
19:00 2.8 1.5 92 35 8   99.14     LegendNANA
20:00 3.9 2.2 89 1 18   99.25     LegendNANA
21:00 1.7 0.2 89 2 11   99.32     LegendNANA
22:00 -0.8 -1.9 93 35 5   99.40   -2 LegendNANA
23:00 -1.0 -2.0 93 32 6   99.47   -3 LegendNANA

Notes on Data Quality.

Legend

  • E = Estimated
  • M = Missing
  • NA = Not Available
  • ‡ = Partner data that is not subject to review by the National Climate Archives
Date modified: